Weather Roundup
Issued by NWS Chicago, IL

Home | Current Version | Previous Version | Text Only | Print | Product List | Glossary On
Versions: 1 2 3 4 5 6 7 8 9 10 11 12 13 14 15 16 17 18 19 20 21 22 23 24 25 26 27 28 29 30 31 32 33 34 35 36 37 38 39 40 41 42 43 44 45 46 47 48 49 50
000
NZUS59 KLOT 212304
HRRLOT

CHICAGO AREA WEATHER ROUNDUP
NATIONAL WEATHER SERVICE CHICAGO/ROMEOVILLE IL
600 PM CDT FRI JUL 21 2017

NOTE: "FAIR" INDICATES FEW OR NO CLOUDS BELOW 12,000 FEET WITH NO
SIGNIFICANT WEATHER AND/OR OBSTRUCTIONS TO VISIBILITY.

* THESE STATIONS ARE NOT UNDER NWS QUALITY CONTROL. THEY ALSO MAY NOT
  REPORT WEATHER SUCH AS PRECIPITATION OR FOG.

ILZ005-006-012>014-019>023-220000-
NORTHEAST ILLINOIS

CITY           SKY/WX    TMP DP  RH WIND       PRES   REMARKS
OHARE          CLOUDY    78  70  76 E14       29.90F HX  80
MIDWAY         CLOUDY    83  70  64 NE14      29.90F HX  87
AURORA         CLOUDY    81  72  74 E9        29.90F HX  85
LANSING*       CLOUDY    86  71  61 S6        29.91F HX  91
JOLIET*        MOSUNNY   87  78  75 SE7       29.89F HX 101
WAUKEGAN       CLOUDY    75  72  90 E7        29.91F
DUPAGE AIRPORT CLOUDY    79  72  79 E10       29.90F HX  82
WHEELING       CLOUDY    77  77 100 SE9       29.92F
MORRIS*        MOSUNNY   86  77  75 SE8       29.87F HX  98
LEWIS AIRPORT* PTSUNNY   86  73  66 E7        29.90F HX  93
NORTHERLY ISL    N/A     75  70  84 NE9         N/A
$$

WIZ051-052-058>065-066-070>072-220000-
SOUTHEAST WISCONSIN

CITY           SKY/WX    TMP DP  RH WIND       PRES   REMARKS
MILWAUKEE      LGT RAIN  75  71  87 CALM      29.94R
KENOSHA*       CLOUDY    76  69  79 E9        29.93F
RACINE*        CLOUDY    74  71  91 E6        29.95R
WAUKESHA       RAIN      73  72  94 NE6       29.97R FOG
$$

INZ001>003-010>013-019-020-220000-
NORTHWEST INDIANA

CITY           SKY/WX    TMP DP  RH WIND       PRES   REMARKS
GARY*          PTSUNNY   86  72  62 SE7       29.92F HX  92
MICHIGAN CITY* NOT AVBL
RENSSELAER*    NOT AVBL
VALPARAISO     PTSUNNY   84  76  76 E5        29.93F HX  93
$$

LMZ740>746-220000-
SOUTHERN LAKE MICHIGAN

STATION/POSITION TIME  SKY/WX   TEMP WIND        PRES    VSBY
                                AIR  DIR/SP/G
                 (UTC)          (F)  (DEG/KT/KT) (MB)    (MI)
HARRISON CRIB    2230            76   50/ 12/ 13   N/A
BURNHAM HARBOR   2245            76                N/A
CALUMET HARBOR   2224            77   50/  8/ 11 1013.0
BURNS HARBOR     2230            84  190/ 10/ 12 1013.5F
MICHIGAN CITY    2230            81  350/  5/  8   N/A
$$

ABBREVIATIONS USED IN REMARKS
   TC - TEMPERATURE IN CELSIUS
  WCI - WIND CHILL INDEX
   HX - HEAT INDEX
  VSB - VISIBILITY
$$



USA.gov is the U.S. government's official web portal to all federal, state and local government web resources and services.